This is the latest recevied weather packets stored in our database for station/object N7ZAP. If no packets are shown the sender has not sent any weather packets the latest 10 day(s).
| Time | Temp. | Humidity | Pressure | Rain* | Wind** | Luminosity | Snow |
|---|---|---|---|---|---|---|---|
| 1788043343 | 36.11° C | 19% | 1018.1 hPa | 0 mm | - | - | - |
| 1788043042 | 36.67° C | 18% | 1018 hPa | 0 mm | - | - | - |
| 1788042738 | 37.78° C | 18% | 1018.1 hPa | 0 mm | - | - | - |
| 1788042437 | 38.33° C | 17% | 1018.2 hPa | 0 mm | - | - | - |
| 1788042132 | 38.33° C | 17% | 1018.3 hPa | 0 mm | - | - | - |
| 1788041827 | 38.89° C | 17% | 1018.2 hPa | 0 mm | - | - | - |
| 1788041522 | 38.89° C | 17% | 1018.4 hPa | 0 mm | - | - | - |
| 1788041217 | 38.89° C | 17% | 1018.2 hPa | 0 mm | - | - | - |
| 1788040916 | 38.89° C | 17% | 1018.4 hPa | 0 mm | - | - | - |
| 1788040615 | 38.33° C | 17% | 1018.4 hPa | 0 mm | - | - | - |
| 1788040310 | 38.33° C | 18% | 1018.4 hPa | 0 mm | - | - | - |
| 1788040010 | 38.33° C | 17% | 1018.8 hPa | 0 mm | - | - | - |
| 1788039705 | 38.33° C | 17% | 1018.8 hPa | 0 mm | - | - | - |
| 1788039400 | 38.33° C | 17% | 1018.8 hPa | 0 mm | - | - | - |
| 1788039096 | 38.33° C | 17% | 1019 hPa | 0 mm | - | - | - |
| 1788038791 | 38.33° C | 17% | 1019.4 hPa | 0 mm | - | - | - |
| 1788038497 | 38.33° C | 17% | 1019.5 hPa | 0 mm | - | - | - |
| 1788038191 | 38.33° C | 17% | 1019.2 hPa | 0 mm | - | - | - |
| 1788037890 | 38.33° C | 17% | 1019.4 hPa | 0 mm | - | - | - |
| 1788037586 | 37.78° C | 18% | 1019.5 hPa | 0 mm | - | - | - |
| 1788037281 | 37.78° C | 18% | 1019.8 hPa | 0 mm | - | - | - |
| 1788036980 | 37.78° C | 17% | 1019.6 hPa | 0 mm | - | - | - |
| 1788036678 | 37.22° C | 18% | 1019.8 hPa | 0 mm | - | - | - |
| 1788036373 | 37.22° C | 18% | 1019.9 hPa | 0 mm | - | - | - |
| 1788034555 | - | - | - | 0 mm | - | - | - |
* Rain latest hour (hover to see other rain measurements)
** Current wind speed in m/s (hover to see current wind gust speed)